Regional Weather Roundup
Issued by NWS

Home | Current Version | Previous Version | Graphics & Text | Print | Product List | Glossary On
Versions: 1 2 3 4 5 6 7 8 9 10 11 12 13 14 15 16 17 18 19 20 21 22 23 24 25 26 27 28 29 30 31 32 33 34 35 36 37 38 39 40 41 42 43 44 45 46 47 48 49 50
000
ASUS43 KLSX 241607
RWRMO

WEATHER SUMMARY FOR MISSOURI
NATIONAL WEATHER SERVICE SPRINGFIELD MO
1100 AM CDT FRI OCT 24 2014

NOTE: "FAIR" INDICATES FEW OR NO CLOUDS BELOW 12,000 FEET WITH NO
       SIGNIFICANT WEATHER AND/OR OBSTRUCTIONS TO VISIBILITY.
       CURRENT SKY AND/OR WEATHER CONDITIONS ARE NOT AVAILABLE FOR
       CHILLICOTHE AND FARMINGTON.

MOZ001>031-035>038-043-044-053-054-241700-
...NORTHERN AND WESTERN MISSOURI...

CITY           SKY/WX    TMP DP  RH WIND       PRES   REMARKS
KANSAS CTY INT CLOUDY    62  59  90 SW9       30.04S
KANSAS C DTWN  PTSUNNY   66  58  75 SW8       30.04F
LEE`S SUMMIT   PTSUNNY   62  57  83 SW12      30.06F
ST JOSEPH      CLOUDY    63  60  90 S10       30.02F
CHILLICOTHE      N/A     60  59  96 S6        30.06F
KIRKSVILLE     FOG       58  58 100 S9        30.08F VSB 1/4

$$
MOZ066>068-077>081-088>096-101>105-241700-
...SOUTHWEST MISSOURI...

CITY           SKY/WX    TMP DP  RH WIND       PRES   REMARKS
SPRINGFIELD    MOSUNNY   64  57  78 SW6       30.13S
JOPLIN         MOSUNNY   65  56  72 SW12      30.12S

$$
MOZ032>034-039>042-045>050-055>058-069>072-241700-
...CENTRAL MISSOURI...

CITY           SKY/WX    TMP DP  RH WIND       PRES   REMARKS
COLUMBIA       PTSUNNY   63  59  87 SW7       30.11F
JEFFERSON CITY MOSUNNY   64  57  78 S6        30.11F
ROLLA          PTSUNNY   61  54  77 W6        30.12S
SEDALIA        PTSUNNY   66  56  70 S13       30.10S
WHITEMAN AFB   MOSUNNY   65  56  74 S9        30.08S
OSAGE BEACH    CLOUDY    64  54  68 SW7       30.13S

$$
MOZ051-052-059>065-241700-
...EAST CENTRAL MISSOURI...

CITY           SKY/WX    TMP DP  RH WIND       PRES   REMARKS
ST LOUIS INTL  PTSUNNY   63  55  75 W3        30.13S
SPIRIT OF STL  PTSUNNY   63  55  75 CALM      30.12S
ST CHARLES     CLOUDY    59  56  89 N5        30.12S

$$
MOZ072>076-082>087-097>100-106>115-241700-
...SOUTH CENTRAL AND SOUTHEAST MISSOURI...

CITY           SKY/WX    TMP DP  RH WIND       PRES   REMARKS
CAPE GIRARDEAU CLOUDY    59  50  72 W5        30.14S
FARMINGTON     PTSUNNY   63  54  72 CALM      30.15F
POPLAR BLUFF   CLOUDY    59  49  69 CALM      30.14S
WEST PLAINS    MOSUNNY   63  53  70 SW6       30.16S

$$



USA.gov is the U.S. government's official web portal to all federal, state and local government web resources and services.